PILOTS ONLINE: 264    ATC ONLINE: 26

EGPC

Wick Airport

Location

IATA WIC
City Wick
Country  United Kingdom
Latitude 58° 27' 32" N
Longitude 3° 5' 35" W
Elevation 126 ft
Type Medium Airport

Map

Weather

METAR
2014/10/22 09:20
EGPC 220920Z 19009KT 9000 -RA FEW035 BKN044 08/06 Q1013
TAF
No TAF available

Runways

08/26 3399 ft / 148 ft
13/31 5988 ft / 148 ft

Outbound flights

Callsign Flying to Pilot ATD/STD ETA Aircraft

Inbound flights

Callsign Flying from Pilot ATD ETA Aircraft